Location: North Runcton
(52.7000°N, 0.4333°E)
Time: 19:38:33
(UTC+00:00)

Cosmos 1346 Rocket - Pass Details

Date: 19 May 2025
Orbit: 485 x 499 km, 81.2° (Epoch: 21 June)

Event Time Altitude Azimuth Distance (km) Brightness Sun altitude
Rises 21:05:18 0° 344° (NNW) 2,591 7.7 -8.6°
Reaches altitude 10° 21:07:27 10° 341° (NNW) 1,700 6.6 -8.8°
Maximum altitude 21:11:07 60° 261° (W) 568 3.0 -9.1°
Drops below altitude 10° 21:14:44 10° 181° (S) 1,676 4.8 -9.5°
Enters shadow 21:15:09 - 180° (S) 1,848 5.0 -9.5°
